Saturday, November 18, 2017, 9:57 PM EST
Back to Local

KORE, Orange, Orange Municipal Airport

Location: Orange, MA, United States Lat: 42.572
Local Time: 9:57 PM EST ( 2:57 GMT) Lon: -72.278
Time Zone: US/Eastern Elev: 554 ft

Show me the last for .
Show Decoded

2017-11-18 21:31 METAR KORE 190231Z AUTO 00000KT 7SM -RA OVC008 02/02 A2952 RMK AO2 CIG 006V013
                 P0000 T00220022 TSNO =
2017-11-18 20:52 METAR KORE 190152Z AUTO 00000KT 7SM -RA BKN012 OVC019 02/02 A2954 RMK AO2 SLP010
                 P0003 T00220022 TSNO =
2017-11-18 20:36 METAR KORE 190136Z AUTO 00000KT 7SM -RA BKN014 OVC034 02/02 A2956 RMK AO2 P0003
                 T00170017 TSNO =
2017-11-18 19:52 METAR KORE 190052Z AUTO 00000KT 6SM -RA BR BKN017 BKN031 OVC037 02/02 A2959 RMK
                 AO2 RAB07 SLP027 P0004 T00170017 TSNO =
2017-11-18 19:29 METAR KORE 190029Z AUTO 00000KT 6SM -RA BR SCT021 BKN029 OVC037 02/02 A2959 RMK
                 AO2 RAB07 P0002 T00170017 TSNO =
2017-11-18 18:52 METAR KORE 182352Z AUTO 00000KT 10SM FEW025 SCT035 OVC042 02/02 A2962 RMK AO2
                 RAB09E19 PRESFR SLP038 P0000 60000 T00220017 10044 20022 56016 TSNO =
2017-11-18 18:48 METAR KORE 182348Z AUTO 00000KT 10SM SCT025 OVC044 02/01 A2962 RMK AO2 RAB09E19
                 P0000 TSNO =
2017-11-18 18:14 METAR KORE 182314Z AUTO 00000KT 9SM -RA BKN027 OVC032 02/02 A2965 RMK AO2 RAB09
                 P0000 T00220017 TSNO =
2017-11-18 17:52 METAR KORE 182252Z AUTO 00000KT 10SM SCT028 SCT040 OVC050 02/02 A2965 RMK AO2
                 SLP048 T00220017 TSNO =
2017-11-18 17:06 METAR KORE 182206Z AUTO 00000KT 10SM SCT026 OVC055 02/01 A2966 RMK AO2 T00220006
                 TSNO =
2017-11-18 16:52 METAR KORE 182152Z AUTO 00000KT 10SM BKN026 BKN043 OVC055 02/00 A2967 RMK AO2
                 RAB2053E15 SLP054 P0000 T00220000 TSNO =
2017-11-18 16:43 METAR KORE 182143Z AUTO 00000KT 10SM BKN026 OVC043 02/00 A2967 RMK AO2
                 RAB2053E15 P0000 T00220000 TSNO =
2017-11-18 16:19 METAR KORE 182119Z AUTO 00000KT 10SM SCT026 BKN034 OVC055 03/00 A2968 RMK AO2
                 RAB2053E15 P0000 T00280000 TSNO =
2017-11-18 15:52 METAR KORE 182052Z AUTO 01003KT 10SM BKN027 OVC060 04/M01 A2970 RMK AO2 SLP065
                 T00391011 56029 TSNO =
2017-11-18 15:44 METAR KORE 182044Z AUTO 01004KT 10SM BKN027 OVC065 04/M02 A2971 RMK AO2
                 T00391017 TSNO =
2017-11-18 14:52 METAR KORE 181952Z AUTO 19003KT 10SM BKN080 OVC095 04/M02 A2970 RMK AO2 SLP065
                 T00391022 TSNO =
2017-11-18 13:52 METAR KORE 181852Z AUTO 17007KT 10SM BKN120 04/M04 A2974 RMK AO2 SLP079
                 T00391044 TSNO =
2017-11-18 12:52 METAR KORE 181752Z AUTO 18007KT 10SM FEW090 03/M06 A2979 RMK AO2 SLP095
                 T00331056 10033 21078 56037 TSNO =
2017-11-18 11:52 METAR KORE 181652Z AUTO 19008KT 10SM CLR 03/M06 A2982 RMK AO2 SLP104 T00281061
                 TSNO =
2017-11-18 10:52 METAR KORE 181552Z AUTO 15003KT 10SM CLR 01/M04 A2987 RMK AO2 SLP123 T00061039
                 TSNO =
2017-11-18 09:52 METAR KORE 181452Z AUTO 00000KT 10SM CLR M02/M04 A2990 RMK AO2 SLP133 T10221044
                 58022 TSNO =
2017-11-18 08:52 METAR KORE 181352Z AUTO 00000KT 10SM CLR M04/M06 A2994 RMK AO2 SLP146 T10391056
                 TSNO =
2017-11-18 07:52 METAR KORE 181252Z AUTO 00000KT 10SM CLR M06/M06 A2994 RMK AO2 SLP148 T10561061
                 TSNO =
2017-11-18 06:52 METAR KORE 181152Z AUTO 00000KT 10SM CLR M08/M08 A2997 RMK AO2 SLP157 I1000
                 I6000 T10781083 11056 21083 55004 TSNO =
2017-11-18 05:52 METAR KORE 181052Z AUTO 00000KT 10SM CLR M08/M08 A2995 RMK AO2 SLP152 I1000
                 T10781083 TSNO =
2017-11-18 04:52 METAR KORE 180952Z AUTO 00000KT 10SM CLR M07/M08 A2997 RMK AO2 SLP157 I1000
                 T10721078 TSNO =
2017-11-18 03:52 METAR KORE 180852Z AUTO 00000KT 10SM CLR M07/M08 A2998 RMK AO2 SLP158 I1000
                 I3000 T10671078 55005 TSNO =
2017-11-18 02:52 METAR KORE 180752Z AUTO 13003KT 10SM CLR M07/M07 A2997 RMK AO2 SLP156 I1000
                 T10671072 TSNO =
2017-11-18 01:52 METAR KORE 180652Z AUTO 00000KT 10SM CLR M07/M07 A2999 RMK AO2 SLP164 T10721072
                 TSNO =
2017-11-18 00:52 METAR KORE 180552Z AUTO 00000KT 10SM BKN110 M06/M06 A2999 RMK AO2 SLP163 I1000
                 I6000 T10611061 11028 21067 58002 TSNO =
2017-11-17 23:52 METAR KORE 180452Z AUTO 00000KT 10SM CLR M06/M07 A3000 RMK AO2 SLP167 T10611072
                 400501061 TSNO =
2017-11-17 22:52 METAR KORE 180352Z AUTO 00000KT 10SM CLR M06/M07 A2999 RMK AO2 SLP163 T10561067
                 TSNO =

Support USWX by starting your Amazon purchase here.